When you browse on this site, cookies collect data to enhance your experience and personalize the content and advertising you see.
Visit our Privacy Policy to learn more. By continuing to use the site, you agree to this use of cookies and data.
  • En España
  • Lista de países
  • Para 7 días
  • Temperatura del agua
  • Mapa Satelital
  • El tiempo en el mapa
  • Informadores
  • user-avatar
    Iniciar sesión

    Tiempo cada hora Kurnyky

    Hoy, 23 Mayo, Jueves

    Tiempo Temperatura Precipitaciones Viento Presión Humedad
    00:00 +13°C° 0 mm 1 mps 728 mmHg 87%
    01:00 +12°C° 0 mm 1 mps 728 mmHg 88%
    02:00 +12°C° 0 mm 1 mps 728 mmHg 89%
    03:00 +11°C° 0 mm 0 mps 728 mmHg 89%
    04:00 +11°C° 0 mm 0 mps 728 mmHg 89%
    05:00 +11°C° 0 mm 0 mps 728 mmHg 89%
    06:00 +13°C° 0 mm 0 mps 729 mmHg 85%
    07:00 +14°C° 0 mm 0 mps 729 mmHg 80%
    08:00 +16°C° 0 mm 0 mps 729 mmHg 76%
    09:00 +17°C° 0.7 mm 0 mps 729 mmHg 73%
    10:00 +18°C° 0.7 mm 0 mps 729 mmHg 70%
    11:00 +19°C° 0.7 mm 0 mps 730 mmHg 67%
    12:00 +19°C° 1.4 mm 0 mps 729 mmHg 67%
    13:00 +19°C° 1.4 mm 0 mps 729 mmHg 68%
    14:00 +22°C° 1.4 mm 1 mps 729 mmHg 68%
    15:00 +21°C° 1.2 mm 1 mps 729 mmHg 69%
    16:00 +21°C° 1.2 mm 1 mps 729 mmHg 71%
    17:00 +21°C° 1.2 mm 1 mps 729 mmHg 72%
    18:00 +19°C° 0.6 mm 2 mps 729 mmHg 78%
    19:00 +17°C° 0.6 mm 2 mps 729 mmHg 83%
    20:00 +16°C° 0.6 mm 2 mps 729 mmHg 88%
    21:00 +15°C° 0.6 mm 2 mps 729 mmHg 90%
    22:00 +15°C° 0.6 mm 2 mps 729 mmHg 92%
    23:00 +14°C° 0.6 mm 2 mps 729 mmHg 94%

    Mañana, 24 Mayo, Viernes

    Tiempo Temperatura Precipitaciones Viento Presión Humedad
    00:00 +14°C° 0 mm 2 mps 729 mmHg 95%
    01:00 +13°C° 0 mm 3 mps 729 mmHg 96%
    02:00 +12°C° 0 mm 3 mps 729 mmHg 97%
    03:00 +12°C° 0 mm 3 mps 729 mmHg 97%
    04:00 +12°C° 0 mm 3 mps 729 mmHg 97%
    05:00 +14°C° 0 mm 2 mps 729 mmHg 97%
    06:00 +14°C° 0 mm 2 mps 729 mmHg 95%
    07:00 +15°C° 0 mm 2 mps 729 mmHg 92%
    08:00 +16°C° 0 mm 2 mps 730 mmHg 90%
    09:00 +17°C° 0.1 mm 2 mps 730 mmHg 88%
    10:00 +17°C° 0.1 mm 2 mps 729 mmHg 86%
    11:00 +18°C° 0.1 mm 2 mps 729 mmHg 84%
    12:00 +19°C° 0.2 mm 2 mps 729 mmHg 81%
    13:00 +19°C° 0.2 mm 2 mps 729 mmHg 78%
    14:00 +20°C° 0.2 mm 2 mps 729 mmHg 75%
    15:00 +20°C° 0.6 mm 3 mps 729 mmHg 77%
    16:00 +20°C° 0.6 mm 3 mps 729 mmHg 78%
    17:00 +19°C° 0.6 mm 4 mps 729 mmHg 79%
    18:00 +18°C° 0 mm 4 mps 729 mmHg 83%
    19:00 +17°C° 0 mm 3 mps 729 mmHg 88%
    20:00 +16°C° 0 mm 3 mps 728 mmHg 93%
    21:00 +15°C° 0 mm 2 mps 728 mmHg 93%
    22:00 +14°C° 0 mm 2 mps 728 mmHg 94%
    23:00 +14°C° 0 mm 2 mps 728 mmHg 94%

    Pasado mañana, 25 Mayo, Sábado

    Tiempo Temperatura Precipitaciones Viento Presión Humedad
    00:00 +14°C° 0 mm 2 mps 728 mmHg 95%
    01:00 +13°C° 0 mm 2 mps 728 mmHg 95%
    02:00 +12°C° 0 mm 3 mps 728 mmHg 96%
    03:00 +12°C° 0 mm 3 mps 728 mmHg 96%
    04:00 +13°C° 0 mm 3 mps 728 mmHg 96%
    05:00 +13°C° 0 mm 3 mps 728 mmHg 96%
    06:00 +13°C° 0.1 mm 3 mps 729 mmHg 95%
    07:00 +14°C° 0.1 mm 4 mps 729 mmHg 94%
    08:00 +15°C° 0.1 mm 4 mps 729 mmHg 93%
    09:00 +16°C° 0.2 mm 5 mps 729 mmHg 90%
    10:00 +17°C° 0.2 mm 5 mps 729 mmHg 86%
    11:00 +19°C° 0.2 mm 6 mps 729 mmHg 83%
    12:00 +19°C° 0.5 mm 6 mps 729 mmHg 78%
    13:00 +20°C° 0.5 mm 6 mps 729 mmHg 74%
    14:00 +21°C° 0.5 mm 6 mps 729 mmHg 69%
    15:00 +20°C° 0 mm 6 mps 729 mmHg 70%
    16:00 +20°C° 0 mm 6 mps 729 mmHg 70%
    17:00 +20°C° 0 mm 5 mps 729 mmHg 70%
    18:00 +19°C° 0 mm 4 mps 729 mmHg 76%
    19:00 +17°C° 0 mm 3 mps 729 mmHg 82%
    20:00 +16°C° 0 mm 3 mps 729 mmHg 88%
    21:00 +14°C° 0 mm 3 mps 729 mmHg 89%
    22:00 +13°C° 0 mm 3 mps 730 mmHg 89%
    23:00 +13°C° 0 mm 3 mps 730 mmHg 90%

    26 Mayo, Domingo

    Tiempo Temperatura Precipitaciones Viento Presión Humedad
    00:00 +12°C° 0 mm 3 mps 730 mmHg 91%
    01:00 +12°C° 0 mm 3 mps 730 mmHg 93%
    02:00 +12°C° 0 mm 3 mps 730 mmHg 94%
    03:00 +11°C° 0 mm 3 mps 730 mmHg 95%
    04:00 +11°C° 0 mm 3 mps 730 mmHg 95%
    05:00 +11°C° 0 mm 3 mps 730 mmHg 96%
    06:00 +13°C° 0 mm 3 mps 730 mmHg 91%
    07:00 +15°C° 0 mm 2 mps 730 mmHg 85%
    08:00 +17°C° 0 mm 2 mps 730 mmHg 80%
    09:00 +18°C° 0.2 mm 3 mps 730 mmHg 77%
    10:00 +19°C° 0.2 mm 3 mps 730 mmHg 73%
    11:00 +20°C° 0.2 mm 3 mps 730 mmHg 69%
    12:00 +20°C° 1.4 mm 4 mps 730 mmHg 72%
    13:00 +20°C° 1.4 mm 4 mps 730 mmHg 75%
    14:00 +20°C° 1.4 mm 5 mps 729 mmHg 77%
    15:00 +20°C° 1.4 mm 5 mps 729 mmHg 78%
    16:00 +19°C° 1.4 mm 5 mps 729 mmHg 79%
    17:00 +19°C° 1.4 mm 6 mps 729 mmHg 80%
    18:00 +17°C° 0.6 mm 5 mps 729 mmHg 83%
    19:00 +15°C° 0.6 mm 4 mps 729 mmHg 87%
    20:00 +14°C° 0.6 mm 4 mps 730 mmHg 91%
    21:00 +13°C° 0.1 mm 3 mps 730 mmHg 90%
    22:00 +13°C° 0.1 mm 2 mps 731 mmHg 90%
    23:00 +12°C° 0.1 mm 2 mps 731 mmHg 90%

    27 Mayo, Lunes

    Tiempo Temperatura Precipitaciones Viento Presión Humedad
    00:00 +10°C° 0 mm 2 mps 731 mmHg 89%
    01:00 +10°C° 0 mm 2 mps 731 mmHg 88%
    02:00 +9°C° 0 mm 2 mps 732 mmHg 88%
    03:00 +9°C° 0 mm 2 mps 732 mmHg 89%
    04:00 +9°C° 0 mm 2 mps 732 mmHg 91%
    05:00 +8°C° 0 mm 3 mps 732 mmHg 92%
    06:00 +10°C° 0 mm 3 mps 733 mmHg 86%
    07:00 +11°C° 0 mm 3 mps 733 mmHg 80%
    08:00 +13°C° 0 mm 3 mps 733 mmHg 73%
    09:00 +14°C° 0 mm 3 mps 733 mmHg 68%
    10:00 +16°C° 0 mm 2 mps 733 mmHg 63%
    11:00 +17°C° 0 mm 2 mps 733 mmHg 57%
    12:00 +18°C° 0 mm 2 mps 733 mmHg 59%
    13:00 +19°C° 0 mm 3 mps 733 mmHg 60%
    14:00 +20°C° 0 mm 3 mps 733 mmHg 62%
    15:00 +20°C° 0 mm 3 mps 732 mmHg 65%
    16:00 +20°C° 0 mm 3 mps 732 mmHg 69%
    17:00 +20°C° 0 mm 3 mps 732 mmHg 72%
    18:00 +19°C° 0 mm 3 mps 731 mmHg 78%
    19:00 +18°C° 0 mm 3 mps 731 mmHg 84%
    20:00 +17°C° 0 mm 3 mps 731 mmHg 90%
    21:00 +17°C° 0.1 mm 4 mps 731 mmHg 89%
    22:00 +17°C° 0.1 mm 4 mps 730 mmHg 89%
    23:00 +15°C° 0.1 mm 5 mps 730 mmHg 89%

    28 Mayo, Martes

    Tiempo Temperatura Precipitaciones Viento Presión Humedad
    00:00 +16°C° 0.2 mm 5 mps 730 mmHg 90%
    01:00 +16°C° 0.2 mm 5 mps 729 mmHg 91%
    02:00 +16°C° 0.2 mm 6 mps 729 mmHg 93%
    03:00 +16°C° 2.5 mm 5 mps 728 mmHg 94%
    04:00 +16°C° 2.5 mm 5 mps 728 mmHg 96%
    05:00 +15°C° 2.5 mm 4 mps 728 mmHg 97%
    06:00 +15°C° 3 mm 4 mps 727 mmHg 97%
    07:00 +17°C° 3 mm 4 mps 727 mmHg 97%
    08:00 +17°C° 3 mm 3 mps 727 mmHg 97%
    09:00 +19°C° 0 mm 4 mps 727 mmHg 90%
    10:00 +21°C° 0 mm 4 mps 727 mmHg 83%
    11:00 +23°C° 0 mm 4 mps 727 mmHg 76%
    12:00 +23°C° 0.1 mm 5 mps 727 mmHg 75%
    13:00 +25°C° 0.1 mm 5 mps 726 mmHg 74%
    14:00 +25°C° 0.1 mm 5 mps 726 mmHg 73%
    15:00 +23°C° 0.2 mm 4 mps 726 mmHg 76%
    16:00 +23°C° 0.2 mm 4 mps 726 mmHg 80%
    17:00 +22°C° 0.2 mm 3 mps 726 mmHg 83%
    18:00 +21°C° 1 mm 3 mps 726 mmHg 84%
    19:00 +20°C° 1 mm 2 mps 726 mmHg 85%
    20:00 +20°C° 1 mm 2 mps 726 mmHg 85%
    21:00 +19°C° 0.3 mm 2 mps 726 mmHg 86%
    22:00 +18°C° 0.3 mm 2 mps 726 mmHg 86%
    23:00 +18°C° 0.3 mm 2 mps 726 mmHg 87%
    Mostrar más